Updates for AMSAT Keplerian TLE Distribution 12-31-2016
31 Dec
2016
31 Dec
'16
3:35 p.m.
Per AMSAT News Service Bulletin 360, a group is trying to help the STARS-C team collect signal reports from the recently launched (from the ISS) STARS-C. (Launch date 12-19/2016) See ANS-360 at http://www.amsat.org/pipermail/ans/2016/000943.html for more information. Below are the current TLEs for the STARS-C NORAD CAT ID 41895:
STARS-C 1 41895U 98067KR 16365.81664009 .00010549 00000-0 16297-3 0 9999 2 41895 51.6435 157.5914 0005134 54.0253 306.1200 15.54697325 1748
I will add them to next week's AMSAT KEPs distribution.
2958
Age (days ago)
2958
Last active (days ago)
0 comments
1 participants
participants (1)
-
Ray Hoad